Location: Jyv�skyl� Landskommun
(62.2500°N, 25.6667°E)
Time: 22:05:09
(UTC+00:00)

Daily predictions for brighter satellites

Satellite Brightness Start Highest point End
(mag) Time Altitude Azimuth Time Altitude Azimuth Time Altitude Azimuth
ATLAS 3B R/B 2.8 16:40:15 10° WNW 16:47:01 82° SSW 16:54:01 10° ESE
NOSS 2-2 (D) 4.5 16:46:34 10° S 16:49:34 24° SE 16:53:03 10° ENE
Okean 1 Rocket 4.4 16:46:35 10° SE 16:49:52 20° E 16:53:10 10° NE
Sich 1 Rocket 3.8 16:45:56 10° S 16:50:22 54° E 16:54:52 10° NNE
ATLAS 2AS CENTAUR R/B 4.3 16:46:17 10° SE 16:50:51 17° ESE 16:55:22 10° ENE
Cosmos 2227 4.2 16:45:22 10° SSW 16:51:04 69° SE 16:56:44 10° NE
Iridium 4 Rocket 3.9 16:47:16 10° S 16:52:41 84° W 16:58:32 10° N
CSL-04 Debris 4.4 16:47:20 10° SSE 16:52:44 80° WSW 16:58:11 10° NNW
Resurs 01 Rocket 2.8 16:49:19 10° ESE 16:53:02 26° NE 16:56:44 10° N
Cosmos 1025 Rocket 3.1 16:49:04 10° NNW 16:53:30 87° WSW 16:57:54 10° SSE
CSL-04 Rocket 3.9 16:49:18 10° SSE 16:54:49 81° WSW 17:00:25 10° NNW
Cosmos 1975 3.0 16:51:10 10° SSW 16:55:15 84° WNW 16:59:21 10° NNE
Cosmos 2227 Rocket 3.1 16:51:23 10° WSW 16:56:54 50° NNW 17:02:26 10° NE
ERS-2 3.8 16:53:47 10° N 16:57:14 39° WNW 17:00:40 10° SW
SKYMED 2 3.6 16:52:53 10° NNE 16:57:17 82° ESE 17:01:39 10° SSW
Cosmos 1937 Rocket 3.5 16:52:24 10° SSW 16:57:35 68° ESE 17:02:45 10° NE
Okean 2 Rocket 3.3 16:56:24 10° SSE 17:00:42 47° E 17:04:59 10° NNE
YAOGAN 1 3.5 16:57:30 10° S 17:01:45 54° WSW 17:06:02 10° NNW
Cosmos 1536 Rocket 3.6 16:58:30 10° NNW 17:03:00 89° NE 17:07:30 10° SSE
SPOT 3 Rocket 4.1 17:00:47 10° SE 17:05:36 42° NE 17:10:28 10° NNW
CZ-4B R/B 3.2 17:02:24 10° N 17:05:39 38° WNW 17:08:54 10° SW
NOSS 3-1 (C) 3.7 17:00:32 10° WSW 17:06:41 86° NNW 17:14:10 10° ENE
Cosmos 2026 Rocket 4.2 17:01:58 10° NNW 17:08:15 56° ENE 17:14:31 10° SE
Cosmos 1092 Rocket 4.0 17:02:20 10° NNW 17:08:28 65° ENE 17:14:38 10° SSE
ARIANE 5 R/B 3.9 17:05:11 10° ESE 17:08:39 24° NE 17:12:07 10° N
Cosmos 1892 Rocket 4.2 17:05:35 10° N 17:09:38 36° ENE 17:13:40 10° SE
Cosmos 1125 Rocket 4.3 17:05:43 10° SSE 17:10:16 30° ESE 17:14:50 10° NE
H-2A R/B 4.4 17:08:16 10° N 17:12:10 29° NW 17:16:02 10° WSW
Cosmos 1464 Rocket 4.0 17:08:25 10° S 17:14:30 65° E 17:20:41 10° NNE
ADEOS Rocket 3.9 17:09:23 10° NNE 17:14:44 48° WNW 17:19:59 10° SW
Resurs 1-3 4.1 17:12:18 10° SE 17:16:29 44° ENE 17:20:40 10° N
Cosmos 2150 Rocket 4.5 17:11:46 10° S 17:16:51 42° ESE 17:21:59 10° NE
Cosmos 1674 2.7 17:13:57 10° NNW 17:17:50 90° NNE 17:21:42 10° SSE
CZ-2C R/B 3.9 17:12:24 10° S 17:17:51 60° WSW 17:23:34 10° NNW
SJ-6B 2.8 17:14:35 10° SSE 17:18:20 62° ENE 17:22:09 10° NNW
NOSS 2-3 (E) 4.2 17:13:29 10° WSW 17:18:22 89° NNW 17:24:43 10° ENE
Cosmos 2219 4.4 17:13:55 10° W 17:19:16 41° NNW 17:24:41 10° NE
MOS 1 Rocket 3.4 17:15:41 10° NNE 17:20:01 46° E 17:24:11 10° S
PSLV R/B 4.3 17:16:11 10° NNE 17:20:22 71° WNW 17:24:34 10° SSW
CZ-4 R/B 3.3 17:16:46 10° SSW 17:20:37 34° W 17:24:26 10° NNW
Cosmos 2084 3.6 17:17:19 10° W 17:21:47 83° N 17:25:57 12° E
Cosmos 1461 3.3 17:17:42 10° WNW 17:22:28 73° NNE 17:26:46 13° ESE
Cosmos 1782 Rocket 4.1 17:18:18 10° SSW 17:22:45 66° WNW 17:27:14 10° NNE
CZ-2C R/B 3.3 17:22:37 10° NNE 17:27:42 35° E 17:32:49 10° SSE
Cosmos 990 Rocket 4.5 17:27:26 10° SW 17:32:34 65° NW 17:37:44 10° NE
ARGOS 3.6 17:27:31 10° S 17:32:53 67° WSW 17:38:17 10° NNW
DMSP B5D1-3 4.5 17:28:38 10° NNE 17:33:45 72° ESE 17:38:51 10° SSW
NOSS 2-2 (C) 3.8 17:30:29 10° SSW 17:33:58 41° SE 17:38:12 10° ENE
Cosmos 2082 Rocket 2.2 17:28:44 10° NW 17:34:24 74° NE 17:39:26 13° SE
Uosat 12 SS-18 rocket 4.2 17:30:26 10° WNW 17:34:45 71° NNE 17:38:31 15° E
FREGAT/IRIS 2.1 17:34:03 10° SSE 17:36:39 82° ENE 17:39:17 10° NNW
MOS 1 4.4 17:33:20 10° SSE 17:39:03 89° WSW 17:44:50 10° NNW
Cosmos 1891 Rocket 4.4 17:34:38 10° SSW 17:40:44 89° ESE 17:46:49 10° NNE
USA 245 4.1 17:40:52 14° ENE 17:41:01 14° NE 17:42:18 10° NNE
Lacrosse 5 rocket 2.2 17:37:49 10° WSW 17:41:55 42° S 17:45:05 17° ESE
Cosmos 1340 Rocket 3.9 17:39:40 11° SE 17:42:40 25° E 17:46:00 10° NE
Cosmos 2151 Rocket 3.5 17:38:49 10° S 17:43:18 75° ESE 17:47:52 10° NNE
Cosmos 2297 Rocket 3.5 17:38:07 10° W 17:43:26 39° NNW 17:48:45 10° NE
Cosmos 1733 3.8 17:41:26 10° SSE 17:44:56 35° E 17:48:26 10° NNE
NOSS 2-3 (D) 4.2 17:40:02 10° W 17:44:59 84° N 17:51:26 10° E
COSMO-SKYMED 1 3.7 17:41:07 10° NNE 17:45:19 48° WNW 17:49:31 10° SW
Spot 2 Rocket 4.1 17:45:02 16° ESE 17:48:36 39° NE 17:53:17 10° NNW
Meteor 1-15 Rocket 4.3 17:43:26 10° S 17:49:03 62° E 17:54:48 10° NNE
USA 116 3.8 17:52:19 10° NNE 17:55:45 71° WNW 17:59:33 10° SSW
Ariane Rocket 3.4 17:50:55 10° S 17:55:59 66° WSW 18:01:05 10° NNW
NOSS 8 (E) 4.1 17:53:05 10° WSW 17:56:06 81° SSE 17:58:34 17° ENE
Cosmos 1805 3.3 17:52:38 10° S 17:56:29 55° E 18:00:21 10° NNE
H-2A R/B 3.4 17:52:32 10° SSW 17:57:17 40° W 18:02:12 10° NNW
NOSS 8 (H) 4.2 17:54:26 10° WSW 17:57:26 67° SSE 17:59:50 17° ENE
Cosmos 909 Rocket 4.2 17:50:59 10° WNW 17:57:57 75° SW 18:03:01 16° SE
Cosmos 1140 Rocket 4.2 17:53:04 10° NW 17:57:59 41° NE 18:01:18 19° E
SL-08 RB Rocket 4.4 17:53:37 10° S 17:58:05 54° WSW 18:02:33 10° NNW
OBJECT-B 0.7 17:55:36 13° SSE 17:58:27 87° E 18:01:45 10° NNW
COSMOS 2406 3.8 17:54:26 10° NW 18:00:00 56° WSW 18:05:32 10° SSE
SJ 16-02 3.2 17:56:28 10° W 18:00:25 31° NW 18:04:23 10° NNE
Okean 1-7 Rocket 3.7 17:56:08 10° NNW 18:00:43 65° ENE 18:04:23 16° SSE
Cosmos 1626 Rocket 4.1 17:56:42 10° N 18:00:56 41° ENE 18:03:25 22° ESE
Exosat Rocket 3.8 17:57:45 10° S 18:02:32 44° ESE 18:07:29 10° NE
Cosmos 407 Rocket 4.0 17:57:50 10° NNW 18:02:49 47° NE 18:06:03 21° ESE
Cosmos 1626 2.4 17:59:43 10° NNW 18:03:26 70° WSW 18:07:07 10° S
Cosmos 2263 Rocket 2.6 17:58:17 10° WSW 18:03:51 65° NW 18:09:29 10° NE
Terra 3.1 18:03:57 18° E 18:06:19 26° NE 18:10:15 10° N
MetOp-A 4.5 18:01:03 10° S 18:06:24 69° WSW 18:11:48 10° NNW
USA 229 DEB 3.8 18:00:57 10° W 18:07:50 81° N 18:14:14 14° E
USA 229 3.8 18:01:03 10° W 18:07:55 81° N 18:14:20 14° E
Cosmos 1844 Rocket 2.6 18:02:41 10° SSW 18:08:11 62° SE 18:13:44 10° NE
USA 290 3.0 18:06:27 10° NNW 18:09:30 38° NE 18:10:37 28° E
Meteor 2-5 Rocket 4.3 18:03:58 10° NNW 18:09:32 61° W 18:15:11 10° S
Cosmos 372 Rocket 4.1 18:04:45 10° SW 18:10:00 80° NW 18:15:15 10° NE
SPOT 1/Viking Rocket 3.9 18:08:06 21° ESE 18:11:16 48° ENE 18:16:14 10° NNW
NOSS 2-3 (C) 4.3 18:06:24 10° W 18:11:29 80° N 18:17:06 15° E
Cosmos 2266 Rocket 4.1 18:05:56 10° NNW 18:11:53 54° ENE 18:15:59 20° SE
Cosmos 1455 Rocket 3.8 18:10:13 23° SE 18:12:00 32° E 18:15:54 10° NNE
Meteor 1-24 Rocket 4.0 18:06:43 10° NNW 18:12:12 70° WSW 18:17:52 10° S
Cosmos 2278 Rocket 3.1 18:10:00 17° SE 18:12:40 25° ESE 18:17:08 10° NE
ATLAS CENTAUR R/B 1.4 18:09:15 10° WNW 18:12:58 59° N 18:15:07 22° ENE
Lacrosse 4 Rocket 1.8 18:10:00 10° NW 18:13:59 54° SW 18:16:33 20° SSE
Meteor 2-19 Rocket 4.4 18:08:12 10° NNW 18:14:23 76° ENE 18:19:42 14° SSE
ISS -1.6 18:12:53 10° SSW 18:14:46 14° S 18:14:49 14° S
Cosmos 1844 3.7 18:10:06 10° SSW 18:15:39 59° ESE 18:21:10 10° NE
Cosmos 2034 Rocket 4.2 18:09:17 10° SSW 18:15:40 80° WNW 18:22:02 10° NNE
USA 186 3.6 18:13:06 10° SSW 18:16:06 32° W 18:19:09 10° NNW
Meteor 1-22 Rocket 4.4 18:11:21 10° S 18:17:13 57° E 18:23:12 10° NNE
NOSS 3-4 (A) 4.1 18:12:02 10° S 18:17:16 32° SE 18:22:54 10° ENE
NOSS 3-4 (C) 4.1 18:12:09 10° S 18:17:23 32° SE 18:23:00 10° ENE
NOSS 3-1 (A) 3.8 18:13:40 10° W 18:20:00 81° N 18:26:34 15° E
SL-14 R/B 3.9 18:18:33 10° NNW 18:22:25 55° W 18:26:18 10° S
Cosmos 614 Rocket 4.0 18:18:50 10° NW 18:24:03 70° NE 18:26:54 27° SE
Cosmos 1703 4.1 18:21:13 10° N 18:24:48 34° ENE 18:25:46 29° E
Cosmos 1833 Rocket 3.4 18:19:57 10° NW 18:25:25 51° WSW 18:30:11 14° SSE
Cosmos 2292 Rocket 2.8 18:22:41 10° N 18:25:37 52° ENE 18:26:07 45° ESE
Okean 1 Rocket 3.1 18:22:43 10° SSW 18:27:14 90° WNW 18:31:46 10° NNE
Resurs 01 Rocket 1.7 18:25:52 18° SSE 18:29:09 83° WSW 18:33:39 10° NNW
Cosmos 2251 Rocket 3.7 18:24:13 10° NW 18:29:36 74° WSW 18:33:15 21° SSE
NOSS 2-2 (E) 3.4 18:25:44 10° WSW 18:29:37 76° SSE 18:33:40 15° ENE
CZ-2C R/B 4.1 18:25:33 10° NNE 18:29:48 41° E 18:31:44 27° SSE
Cosmos 2298 Rocket 4.2 18:25:58 10° SW 18:31:19 79° NW 18:36:42 10° NE
OPS 8737 3.9 18:33:03 10° WNW 18:35:54 89° NNW 18:36:25 58° ESE
Cosmos 1726 3.4 18:37:32 25° ENE 18:37:32 25° ENE 18:39:57 10° NNE
ATLAS 3B R/B 3.6 18:30:59 10° WNW 18:37:14 41° SW 18:42:35 15° SSE
Cosmos 1470 3.0 18:37:11 39° SE 18:37:59 45° E 18:41:43 10° NNE
Cosmos 1766 3.3 18:34:13 10° SSW 18:38:11 80° WNW 18:42:12 10° NNE
NOSS 2-2 (D) 3.3 18:35:39 10° WSW 18:39:28 76° SSE 18:42:55 18° ENE
ERS-1 Rocket 3.3 18:37:39 30° ESE 18:39:52 52° ENE 18:44:46 10° NNW
ATLAS 2AS CENTAUR R/B 3.3 18:32:45 10° SSW 18:40:08 44° SE 18:47:21 10° ENE
Cosmos 2227 Rocket 3.6 18:36:54 10° WNW 18:42:04 35° N 18:47:15 10° ENE
NOSS 8 (F) 4.3 18:40:04 10° W 18:43:07 77° N 18:44:17 38° ENE
Cosmos 1634 Rocket 3.9 18:37:05 10° S 18:43:18 85° E 18:49:34 10° NNE
Aureole 1 Rocket 4.0 18:38:16 10° NW 18:44:00 47° NE 18:46:00 30° E
IGS 5A 3.4 18:42:31 34° SSE 18:44:15 80° ENE 18:48:26 10° NNW
ARIANE 5 R/B 2.5 18:42:31 30° SSE 18:44:41 89° ENE 18:49:03 10° NNW
SPOT 3 Rocket 4.1 18:40:10 11° S 18:44:58 57° WSW 18:50:05 10° NNW
Cosmos 1825 Rocket 4.3 18:42:18 10° N 18:46:29 38° ENE 18:47:30 33° E
Meteor 1-21 Rocket 4.2 18:41:30 10° NNW 18:47:17 85° ENE 18:50:49 25° SSE
Cosmos 1892 Rocket 4.4 18:43:29 10° NNW 18:47:41 48° W 18:51:24 13° SSW
Cosmos 1655 Rocket 4.0 18:41:56 10° NNW 18:48:15 88° WSW 18:52:53 20° S
Cosmos 1190 Rocket 4.1 18:43:17 10° NW 18:48:34 67° NE 18:50:48 34° ESE
Cosmos 1758 Rocket 4.0 18:44:18 10° N 18:48:40 47° ENE 18:49:50 38° ESE
Landsat 7 3.8 18:49:05 30° SSE 18:51:29 89° ENE 18:56:17 10° NNW
Cosmos 1125 Rocket 3.6 18:46:35 10° SW 18:51:56 82° NW 18:57:18 10° NE
Meteor 2-10 4.3 18:53:19 32° SE 18:55:18 46° E 19:00:22 10° NNE
SPOT 5 3.2 18:54:34 35° SE 18:56:43 61° ENE 19:02:01 10° NNW
CARTOSAT-1 3.6 18:56:13 43° ESE 18:57:22 61° ENE 19:01:39 10° NNW
NOSS 3-1 (C) 3.8 18:51:21 10° WNW 18:57:55 86° NNE 19:02:40 26° ESE
Cosmos 1953 3.2 18:58:56 33° ENE 18:58:56 33° ENE 19:01:59 10° NNE
Cosmos 2084 3.6 18:56:53 10° WNW 19:01:20 66° SSW 19:02:29 46° SE
Cosmos 1461 3.6 18:56:56 10° WNW 19:01:36 55° SW 19:03:08 38° SSE
SL-27 R/B 3.5 18:58:45 10° NNW 19:02:04 33° NE 19:02:27 32° ENE
Cosmos 2285 Rocket 4.0 18:56:29 10° SW 19:02:51 86° NW 19:09:18 10° NE
Cosmos 1544 Rocket 3.5 19:04:34 49° SE 19:05:24 59° E 19:09:41 10° NNE
Meteor 1-11 4.3 19:00:55 10° NNW 19:06:29 61° ENE 19:08:27 39° SE
CZ-2C R/B 3.0 19:02:54 10° NNE 19:08:24 69° WNW 19:13:59 10° SSW
Cosmos 1328 3.8 19:04:44 10° NNW 19:08:43 62° ENE 19:09:09 57° ESE
CRYOSAT 2 4.4 19:03:59 10° N 19:08:55 84° W 19:12:05 22° S
NOSS 2-3 (E) 4.4 19:04:03 10° W 19:09:23 84° N 19:13:04 29° E
CZ-4C R/B 4.4 19:14:58 12° ENE 19:14:58 12° ENE 19:15:31 10° ENE
TSX-5 4.3 19:09:15 10° SSW 19:13:40 68° SE 19:19:28 10° NE
Cosmos 2098 Rocket 4.4 19:10:02 10° NNW 19:17:05 65° W 19:21:19 21° S
USA 245 4.3 19:18:26 26° NW 19:18:26 26° NW 19:19:40 10° NNW
Cosmos 2180 Rocket 4.4 19:12:35 17° S 19:17:36 80° E 19:24:01 10° NNE
H-2A R/B 3.9 19:13:33 10° NNE 19:17:14 45° E 19:17:14 45° E
Cosmos 2082 Rocket 3.2 19:13:04 10° NW 19:18:15 39° WSW 19:21:16 22° SSW
DMSP B5D2-2 4.5 19:13:02 10° NNE 19:18:19 66° WNW 19:23:33 10° SW
Cosmos 1758 3.2 19:17:38 59° S 19:18:21 81° ESE 19:22:26 10° NNE
Cosmos 1340 Rocket 3.2 19:15:11 12° SSW 19:18:51 62° WNW 19:22:53 10° NNE
SL-24 DEB 4.5 19:15:21 10° NNE 19:19:50 46° E 19:20:01 46° E
Cosmos 2279 Rocket 4.0 19:13:36 10° SSW 19:19:53 86° WNW 19:26:13 10° NNE
Lacrosse 5 rocket 2.8 19:16:47 10° W 19:20:30 26° SSW 19:20:43 26° SSW
Uosat 12 SS-18 rocket 4.4 19:18:28 10° WNW 19:22:44 56° SW 19:23:30 49° S
Meteor 2-21 4.4 19:16:31 10° NNW 19:22:46 90° S 19:25:34 36° SSE
Cosmos 1023 Rocket 4.4 19:18:44 10° NW 19:23:53 83° WSW 19:25:17 49° SSE
NOSS 2-2 (C) 3.5 19:20:19 10° WSW 19:24:16 85° NNW 19:26:25 33° ENE
ALOS 2 4.3 19:24:30 20° ENE 19:25:20 21° NE 19:28:35 10° N
Cosmos 1953 Rocket 3.7 19:21:22 10° N 19:25:39 53° ENE 19:25:55 52° E
Cosmos 1602 Rocket 3.8 19:22:56 10° NNW 19:27:18 64° W 19:28:36 42° SSW
Spot 2 Rocket 3.8 19:25:14 32° S 19:27:29 60° WSW 19:32:30 10° NNW
Cosmos 2297 Rocket 3.5 19:23:30 10° WNW 19:28:45 36° N 19:32:54 15° ENE
COSMOS 2455 3.9 19:31:30 28° E 19:31:30 28° E 19:34:57 10° ENE
OBJECT-B 3.7 19:29:26 10° WSW 19:31:19 14° W 19:33:13 10° NW
NOSS 2-3 (D) 4.3 19:30:36 10° WNW 19:36:00 88° N 19:38:50 37° ESE
Cosmos 1892 4.1 19:33:38 10° N 19:36:29 27° NE 19:36:29 27° NE
Cosmos 1140 Rocket 3.5 19:35:01 10° NW 19:40:09 70° WSW 19:41:18 52° S
SJ 16-02 4.1 19:37:22 10° NW 19:40:19 17° NNW 19:43:16 10° NNE
Terra 1.7 19:42:51 63° SSE 19:43:37 89° ENE 19:48:26 10° NNW
USA 290 3.6 19:40:55 10° NW 19:43:23 34° W 19:43:23 34° W
Cosmos 2369 Rocket 4.3 19:46:58 12° ENE 19:46:58 12° ENE 19:47:47 10° ENE
Cosmos 407 Rocket 3.8 19:39:57 10° NW 19:45:00 57° WSW 19:46:14 45° SSW
In-Cosmos 22 Rocket 4.4 19:41:08 10° NNW 19:46:35 54° ENE 19:47:31 48° E
Cosmos 2263 Rocket 3.6 19:43:29 10° W 19:48:41 37° NNW 19:53:55 10° NE
Cosmos 1455 Rocket 3.7 19:47:18 25° SW 19:49:42 54° WNW 19:54:00 10° N
SPOT 1/Viking Rocket 4.2 19:48:43 31° SSW 19:50:47 48° W 19:55:48 10° NNW
Lacrosse 4 Rocket 3.7 19:49:45 10° W 19:51:52 14° WSW 19:52:52 13° SW
ATLAS CENTAUR R/B 1.6 19:48:17 10° WNW 19:51:16 55° WNW 19:51:16 55° WNW
Cosmos 1844 Rocket 3.4 19:46:48 10° WSW 19:52:18 54° NNW 19:57:51 10° NE
Cosmos 1825 4.0 19:51:01 10° N 19:53:33 22° NE 19:53:33 22° NE
Cosmos 1954 Rocket 3.9 19:50:17 10° NW 19:55:30 79° WSW 19:56:16 64° S
Cosmos 2278 Rocket 2.0 19:51:32 17° SSW 19:56:02 77° SE 20:01:44 10° NE
Cosmos 676 Rocket 3.9 19:52:16 10° NW 19:57:30 77° WSW 19:58:16 63° S
USA 229 DEB 3.7 19:52:01 10° WNW 19:59:01 82° SSW 20:01:38 44° ESE
USA 229 3.7 19:52:07 10° WNW 19:59:08 82° SSW 20:01:44 44° ESE
Cosmos 1844 4.3 19:54:22 10° WSW 19:59:57 56° NNW 20:05:29 10° NE
Cosmos 1703 4.1 19:57:16 10° NNW 20:00:59 43° W 20:01:07 43° WSW
SL-08 R/B 4.4 19:55:05 10° NNW 20:01:29 81° ENE 20:03:07 53° SSE
Cosmos 2228 4.0 20:02:53 35° NE 20:02:53 35° NE 20:05:44 10° NNE
Cosmos 1850 Rocket 4.0 19:56:51 10° NW 20:02:04 68° NE 20:02:47 60° E
NOSS 2-3 (C) 4.4 19:56:57 10° WNW 20:02:31 84° SSW 20:04:30 49° ESE
Exosat Rocket 4.3 19:59:03 10° WSW 20:03:57 53° NW 20:09:22 10° NE
Meteor 2-16 Rocket 4.5 19:58:07 10° NNW 20:04:15 76° W 20:06:04 48° S
Cosmos 1908 4.2 20:06:48 39° NNE 20:06:48 39° NNE 20:09:19 10° NNE
Resurs 01 Rocket 4.0 20:03:26 11° SW 20:06:21 19° W 20:09:33 10° NW
NOSS 3-4 (A) 3.3 20:01:17 10° SW 20:07:23 73° SSE 20:14:07 10° ENE
NOSS 3-4 (C) 3.3 20:01:24 10° SW 20:07:29 73° SSE 20:14:13 10° ENE
NOSS 3-1 (A) 3.7 20:04:30 10° WNW 20:11:14 84° SSW 20:13:58 44° ESE
Cosmos 1726 2.9 20:12:01 49° NW 20:12:01 49° NW 20:15:28 10° N
Spot 4 4.1 20:12:22 57° ENE 20:12:33 57° ENE 20:17:19 10° NNW
Cosmos 1470 4.4 20:12:29 23° WSW 20:14:11 33° WNW 20:17:44 10° N
Aureole 3 4.4 20:16:21 51° E 20:16:21 51° E 20:20:54 10° NNE
ERS-1 Rocket 3.8 20:17:40 37° SW 20:18:49 43° W 20:23:39 10° NNW
NOSS 2-2 (E) 3.8 20:16:03 10° W 20:20:18 78° N 20:21:01 64° ENE
Cosmos 2058 Rocket 4.4 20:22:53 30° NE 20:22:53 30° NE 20:25:35 10° NNE
COSMOS 2487 4.1 20:19:02 10° NNW 20:21:18 32° N 20:21:18 32° N
Cosmos 1346 Rocket 4.0 20:19:07 10° N 20:22:04 35° NNE 20:22:04 35° NNE
Cosmos 1825 Rocket 4.2 20:20:12 10° NNW 20:24:27 46° W 20:24:37 46° WSW
Cosmos 2227 Rocket 3.2 20:21:58 10° NW 20:27:22 43° NNE 20:29:53 27° ENE
Aureole 1 Rocket 3.7 20:23:16 10° NW 20:28:35 53° WSW 20:28:35 53° WSW
NOSS 2-2 (D) 3.8 20:25:59 10° W 20:30:09 78° N 20:30:18 77° NNE
ATLAS 2AS CENTAUR R/B 2.9 20:22:40 10° WSW 20:30:40 82° SSE 20:38:20 10° ENE
Cosmos 1340 3.8 20:27:28 10° NNW 20:30:06 41° N 20:30:06 41° N
SL-08 ROCKET BODY 4.2 20:25:28 10° NNW 20:31:22 83° WSW 20:32:13 67° S
Cosmos 1408 4.1 20:28:28 10° N 20:30:39 32° N 20:30:39 32° N
Cosmos 1953 3.3 20:34:37 43° WNW 20:34:41 43° WNW 20:38:33 10° N
SPOT 5 4.0 20:33:48 34° SW 20:35:03 39° W 20:40:06 10° NNW
SL-27 R/B 4.2 20:33:49 10° NW 20:35:59 32° WNW 20:35:59 32° WNW
Cosmos 1833 4.2 20:32:04 10° NW 20:37:48 68° SW 20:38:11 66° SSW
Cosmos 1386 Rocket 4.4 20:34:13 10° NNW 20:40:28 84° WSW 20:41:29 65° S
Cosmos 1943 Rocket 3.2 20:42:33 31° ENE 20:42:33 31° ENE 20:45:53 10° NE
Cosmos 2151 4.2 20:36:44 10° N 20:40:09 36° NE 20:40:09 36° NE
Cosmos 2058 3.6 20:38:47 10° NNW 20:42:05 52° N 20:42:05 52° N
Cosmos 1553 Rocket 3.9 20:46:30 67° SSE 20:47:16 75° E 20:53:43 10° NNE
NOSS 3-1 (C) 4.0 20:42:02 10° WNW 20:48:49 61° SW 20:50:02 55° S
Cosmos 2219 3.8 20:44:20 10° NW 20:49:56 53° NNE 20:51:25 42° ENE
Cosmos 1745 Rocket 4.0 20:51:19 10° NNW 20:57:25 67° W 20:58:16 60° SW
CZ-4C R/B 3.0 21:00:08 42° E 21:00:08 42° E 21:04:47 10° ENE
Cosmos 1726 Rocket 4.2 21:01:58 51° N 21:01:58 51° N 21:05:16 10° NNE
ALOS 2 3.1 21:01:54 56° N 21:01:54 56° N 21:05:29 10° NNW
Cosmos 1606 Rocket 4.2 21:03:52 53° NNW 21:03:52 53° NNW 21:07:22 10° NNE
SME Rocket 3.6 21:00:43 10° NNE 21:07:02 77° WNW 21:07:13 75° W
Cosmos 1741 Rocket 4.3 21:02:12 10° NW 21:07:05 58° W 21:07:05 58° W
Cosmos 1892 4.4 21:09:12 10° NNW 21:11:27 32° NW 21:11:27 32° NW
Cosmos 2297 Rocket 2.5 21:08:08 10° NW 21:13:46 61° NE 21:14:40 54° ENE
Cosmos 1486 Rocket 4.4 21:09:08 10° NW 21:14:23 56° NE 21:14:44 55° ENE
COSMOS 2455 2.7 21:14:36 78° SW 21:15:01 86° SE 21:21:07 10° NE
NOSS 2-2 (C) 4.4 21:10:43 10° WNW 21:13:47 49° WNW 21:13:47 49° WNW
Cosmos 1371 Rocket 4.2 21:16:44 66° NE 21:16:44 66° NE 21:21:24 10° NE
Meteor 2-3 Rocket 4.0 21:11:16 10° NNW 21:16:47 55° ENE 21:17:03 54° ENE
RESURS DK-1 3.8 21:19:22 33° NNE 21:19:22 33° NNE 21:21:54 10° NE
Meteor 2-17 Rocket 4.4 21:12:30 10° NNW 21:18:40 69° ENE 21:19:08 66° E
SJ 16-02 4.0 21:17:34 10° NNW 21:20:34 17° NNE 21:23:33 10° NE
Cosmos 1455 4.4 21:23:36 21° NE 21:23:36 21° NE 21:25:04 10° NNE
Terra 3.6 21:21:44 23° W 21:22:01 23° W 21:25:48 10° NW
Cosmos 2082 4.5 21:17:32 10° NW 21:23:05 49° NNE 21:25:00 35° ENE
Cosmos 2154 Rocket 4.4 21:18:57 10° NNW 21:25:03 50° ENE 21:25:59 47° E
Cosmos 1076 Rocket 4.5 21:21:11 10° NNW 21:24:22 45° NW 21:24:22 45° NW
Helios 1A 4.1 21:26:50 41° NNE 21:26:50 41° NNE 21:29:56 10° NNW
Cosmos 2369 Rocket 2.9 21:28:45 43° ENE 21:28:45 43° ENE 21:32:54 10° NE
Thor Agena Rocket 4.1 21:22:10 10° NNE 21:26:35 49° ENE 21:26:35 49° ENE
Meteor 2-1 Rocket 4.5 21:28:22 57° ENE 21:28:22 57° ENE 21:33:23 10° NNE
Timation 2 Rocket 3.8 21:22:07 10° NW 21:28:19 88° SW 21:28:43 80° SE
Cosmos 2074 Rocket 4.0 21:22:25 10° NNW 21:28:45 69° ENE 21:29:19 65° ESE
Cosmos 1825 3.9 21:26:14 10° NNW 21:28:20 31° NNW 21:28:20 31° NNW
Cosmos 2056 Rocket 3.7 21:31:05 66° NE 21:31:05 66° NE 21:35:37 10° NE
Cosmos 1709 Rocket 4.0 21:25:28 10° NNW 21:31:35 66° W 21:32:01 64° WSW
Cosmos 2263 Rocket 3.5 21:28:39 10° NW 21:33:53 37° NNE 21:39:09 10° E
Cosmos 2297 3.6 21:34:32 81° WNW 21:34:39 82° NW 21:40:21 10° NE
Cosmos 1844 Rocket 4.2 21:32:06 10° WNW 21:37:15 35° N 21:42:25 10° ENE
Cosmos 2228 4.3 21:39:43 36° NW 21:39:43 36° NW 21:43:19 10° N
Cosmos 2278 Rocket 3.1 21:35:05 10° W 21:40:33 47° NNW 21:46:03 10° NE
Okean 3 Rocket 4.4 21:37:11 10° NNW 21:40:40 51° N 21:40:40 51° N
S3M 3.9 21:43:04 68° WSW 21:43:40 74° WNW 21:49:50 10° NNE
Cosmos 968 Rocket 3.6 21:40:49 10° NW 21:45:48 72° NNE 21:45:48 72° NNE
Meteor 2-15 Rocket 4.3 21:49:08 78° SW 21:49:29 83° WNW 21:55:42 10° NNE
USA 229 DEB 4.3 21:42:56 10° WNW 21:49:03 43° WSW 21:49:03 43° WSW
Cosmos 1452 Rocket 4.2 21:50:55 46° ENE 21:50:55 46° ENE 21:54:52 10° NE
USA 229 4.3 21:43:02 10° WNW 21:49:09 43° WSW 21:49:09 43° WSW
NOSS 3-4 (A) 3.6 21:52:04 10° W 21:58:24 81° N 22:05:27 10° E
NOSS 3-4 (C) 3.6 21:52:10 10° W 21:58:30 81° N 22:05:33 10° E
Cosmos 2058 Rocket 4.2 22:00:10 41° NW 22:00:10 41° NW 22:03:44 10° N
Meteor 2-10 Rocket 3.7 22:00:41 84° NNE 22:00:41 84° NNE 22:06:12 10° NNE
NOSS 3-1 (A) 4.3 21:55:14 10° WNW 22:01:23 46° WSW 22:01:23 46° WSW
Cosmos 1624 Rocket 4.2 22:02:28 67° NW 22:02:28 67° NW 22:07:37 10° NE
Resurs 1-4 Rocket 4.4 22:01:40 10° NE 22:03:40 12° ENE 22:04:48 11° E
Cosmos 1812 Rocket 4.5 22:08:13 48° N 22:08:13 48° N 22:11:31 10° NNE
SL-16 R/B 3.4 22:05:31 31° E 22:07:51 44° NE 22:13:38 10° NNW
USA 81 4.4 22:02:43 10° N 22:07:46 59° ENE 22:07:46 59° ENE
CZ-2D R/B 4.4 22:07:29 10° NE 22:09:49 13° ENE 22:10:59 12° E
Cosmos 2227 Rocket 2.2 22:06:19 10° NW 22:11:40 80° NW 22:11:40 80° NW
Cosmos 1656 Rocket 4.0 22:16:30 53° ENE 22:16:30 53° ENE 22:21:03 10° NE
Cosmos 2184 Rocket 3.9 22:09:28 10° NNW 22:15:39 74° W 22:15:45 74° WSW
Cosmos 2315 Rocket 3.9 22:16:20 74° WSW 22:16:47 79° WNW 22:23:06 10° NNE
Cosmos 2151 4.5 22:14:05 10° NNW 22:16:43 32° NW 22:16:43 32° NW
ATLAS 2AS CENTAUR R/B 3.0 22:14:01 10° W 22:21:59 81° N 22:29:29 10° E
Cosmos 1400 Rocket 4.3 22:24:33 36° NNW 22:24:33 36° NNW 22:27:23 10° NNE
SL-8 Rocket 4.4 22:17:29 10° NNW 22:23:41 55° ENE 22:24:56 47° ESE
Cosmos 1943 Rocket 2.2 22:24:03 71° WNW 22:24:15 71° NW 22:29:51 10° NE
Cosmos 1295 Rocket 4.3 22:20:36 10° NNW 22:26:58 85° ENE 22:27:23 78° SE
ATLAS 5 CENTAUR R/B 3.9 22:34:32 17° E 22:34:32 17° E 22:36:05 10° ENE
Cosmos 1610 Rocket 4.3 22:27:15 10° NNW 22:33:26 78° W 22:33:36 78° WSW
Cosmos 2219 3.6 22:28:41 10° NW 22:33:19 54° WNW 22:33:19 54° WNW
Nimbus 7 Rocket 4.3 22:28:25 10° NNE 22:34:30 85° WNW 22:34:50 80° SW
Cosmos 2366 rocket 4.4 22:35:05 10° NNW 22:41:20 58° ENE 22:42:46 48° ESE
Cosmos 371 Rocket 4.0 22:42:30 49° NW 22:42:30 49° NW 22:47:09 10° NNE
Cosmos 1805 Rocket 4.5 22:41:37 10° N 22:45:05 46° NNE 22:45:05 46° NNE
CZ-4C R/B 2.4 22:45:18 57° W 22:46:42 84° N 22:53:53 10° E
Cosmos 2218 Rocket 4.3 22:41:04 10° NNW 22:47:28 64° ENE 22:48:50 52° ESE
Cosmos 332 Rocket 4.3 22:48:24 55° NW 22:48:24 55° NW 22:53:04 10° NNE
Cosmos 1354 Rocket 4.3 22:45:01 10° NW 22:49:18 58° NW 22:49:18 58° NW
Geosat 4.0 22:56:13 76° NNE 22:56:13 76° NNE 23:01:04 10° NW
RESURS DK-1 4.2 22:55:15 25° NW 22:56:30 30° N 23:00:14 10° NE
Cosmos 1455 4.2 22:58:31 25° NNW 22:58:31 25° NNW 23:00:39 10° N
Cosmos-2242 4.0 22:58:39 44° NNW 22:58:39 44° NNW 23:01:47 10° NNE
USA 234 3.6 22:51:20 10° E 22:56:09 46° SE 22:56:09 46° SE
Cosmos 2297 Rocket 2.9 22:52:22 10° NW 22:56:26 42° WNW 22:56:26 42° WNW
Meteor 2-3 Rocket 4.4 22:54:43 10° NNW 22:59:20 41° WNW 22:59:20 41° WNW
SJ 16-02 2.9 22:56:24 10° NNW 23:00:25 33° NE 23:02:27 22° E
COSMOS 2455 3.4 22:57:42 24° W 23:01:24 58° NNW 23:07:23 10° ENE
Cosmos 1959 Rocket 4.5 22:57:36 10° NNW 23:03:45 74° ENE 23:04:41 63° SE
Thor Agena Rocket 4.3 23:01:40 10° NNE 23:06:42 45° NW 23:07:10 44° WNW
Cosmos 2082 3.8 23:01:51 10° NW 23:06:50 64° WNW 23:06:50 64° WNW
Cosmos 2221 3.4 23:09:06 45° NE 23:09:06 45° NE 23:12:25 10° NNE
CZ-4C R/B 4.3 23:10:11 52° NE 23:10:11 52° NE 23:14:15 10° NNW
Cosmos 2154 Rocket 4.2 23:04:40 10° NNW 23:10:42 52° W 23:10:44 52° W
Cosmos 2369 Rocket 2.5 23:10:31 52° WNW 23:11:29 60° NW 23:17:08 10° NE
Cosmos 962 Rocket 4.4 23:11:37 10° NNW 23:17:46 66° W 23:18:00 66° WSW
Cosmos 1697 Rocket 4.3 23:17:28 21° ESE 23:18:11 21° ESE 23:22:18 10° NE
Cosmos 2263 Rocket 2.5 23:13:02 10° NW 23:18:42 67° NE 23:22:18 23° ESE
Cosmos 2263 4.5 23:19:07 57° W 23:20:01 65° NW 23:25:49 10° NE
Cosmos 2181 Rocket 4.3 23:20:19 48° SE 23:21:31 55° E 23:27:38 10° NNE
Cosmos 1844 Rocket 3.9 23:17:04 10° NW 23:22:24 41° NNE 23:27:44 10° E
Cosmos 1777 Rocket 4.0 23:18:28 10° NW 23:23:21 77° NW 23:23:21 77° NW
Cosmos 1980 Rocket 4.3 23:23:46 13° ESE 23:25:29 15° E 23:28:38 10° ENE
Cosmos 2278 Rocket 3.7 23:20:38 10° WNW 23:25:48 35° N 23:31:00 10° ENE
Meteor 1-27 4.1 23:25:48 80° SW 23:26:05 84° WNW 23:31:48 10° NNE
Sich 1 3.7 23:25:45 10° NNW 23:29:00 51° NNW 23:29:00 51° NNW
Cosmos 1869 4.4 23:32:36 43° N 23:32:36 43° N 23:35:18 10° NNE
Cosmos 1452 Rocket 4.2 23:31:14 44° WNW 23:32:01 47° NW 23:37:09 10° NE
Cosmos 2341 Rocket 4.0 23:25:51 10° NNW 23:32:06 61° W 23:32:29 60° WSW
Cosmos 405 Rocket 3.9 23:31:53 10° NNW 23:34:32 40° NNW 23:34:32 40° NNW
Cosmos 1110 Rocket 4.1 23:36:05 67° WNW 23:36:21 68° NW 23:41:40 10° NE
Cosmos 1818 4.1 23:39:49 46° ESE 23:39:49 46° ESE 23:44:43 10° ENE
Cosmos 1331 Rocket 4.0 23:40:09 68° WNW 23:40:22 69° NW 23:45:35 10° NE
Meteor 2-2 Rocket 4.2 23:40:40 69° SSE 23:41:21 80° ESE 23:47:17 10° NNE
Lacrosse 5 3.8 23:43:17 17° ESE 23:43:17 17° ESE 23:45:25 10° E
SL-08 R/B 4.5 23:39:50 22° ESE 23:42:15 40° ENE 23:46:34 10° NNW
Cosmos 1470 Rocket 4.3 23:37:56 10° N 23:42:17 50° ENE 23:42:48 48° E
Nadezhda 1 Rocket 3.9 23:41:57 59° WSW 23:42:42 65° WNW 23:48:46 10° NNE
MOZ.5/SAFIR/RUBIN 5/SL-8 4.4 23:44:49 46° NW 23:44:49 46° NW 23:48:22 10° NNW
Cosmos 1302 Rocket 3.8 23:43:59 86° S 23:44:05 88° ESE 23:49:23 10° NE
Resurs 1-4 Rocket 2.8 23:39:49 10° NNE 23:44:54 45° E 23:45:52 41° SE
PSLV R/B 4.0 23:40:45 10° NNE 23:44:49 58° NW 23:44:49 58° NW
Helios 1B rocket 2.9 23:42:55 10° NNE 23:46:22 61° NNE 23:46:22 61° NNE
COBE Rocket 3.8 23:47:29 83° SW 23:47:35 84° WSW 23:52:49 10° NNW
SL-19 R/B 4.3 23:46:59 46° SE 23:48:47 80° ENE 23:54:42 10° NNW
NOSS 3-4 (A) 3.5 23:43:02 10° WNW 23:49:33 84° SSW 23:56:52 10° ESE
NOSS 3-4 (C) 3.5 23:43:08 10° WNW 23:49:39 84° SSW 23:56:58 10° ESE
Cosmos 1937 Rocket 4.5 23:44:57 10° NW 23:49:56 45° NE 23:54:54 10° ESE
Cosmos 2227 4.1 23:45:21 10° NW 23:51:04 89° NE 23:53:14 40° SE
CZ-2D R/B 2.7 23:46:06 10° NNE 23:51:16 48° E 23:52:17 42° SE
SL-16 R/B 2.4 23:50:37 62° SW 23:51:19 67° WSW 23:57:30 10° NNW
Cosmos 1842 Rocket 3.9 23:51:54 61° NNW 23:51:54 61° NNW 23:55:55 10° NNE
